Regional Weather Roundup
Issued by NWS State College, PA

Home | Current Version | Previous Version | Text Only | Print | Product List | Glossary Off
Versions: 1 2 3 4 5 6 7 8 9 10 11 12 13 14 15 16 17 18 19 20 21 22 23 24 25 26 27 28 29 30 31 32 33 34 35 36 37 38 39 40 41 42 43 44 45 46 47 48 49 50

000
ASUS41 KCTP 250503
RWRCTP

REGIONAL WEATHER ROUNDUP
NATIONAL WEATHER SERVICE STATE COLLEGE PA
100 AM EDT SAT MAR 25 2017

Note: "fair" indicates few or no clouds below 12,000 feet with no
significant weather and/or obstructions to visibility.

* = STATION THAT DOES NOT REPORT PRECIPITATION /E.G. RAIN...SNOW...ETC/
    THUNDER OR FOG.

PAZ002>004-007>009-013>016-020>023-029>032-250600-
WESTERN PENNSYLVANIA

CITY           SKY/WX    TMP DP  RH WIND       PRES   REMARKS
ERIE           CLOUDY    52  45  77 N9        30.09R
MEADVILLE      PTCLDY    63  50  62 SW10      30.08S
FRANKLIN*      CLEAR     61  48  63 SW7       30.11S
NEW CASTLE     FAIR      59  51  75 CALM      30.11S
BEAVER COUNTY  NOT AVBL
BUTLER*        CLOUDY    63  50  63 SW5       30.13S
PITTSBURGH INT CLOUDY    66  52  60 SW8       30.11S
PITTSBURGH     CLOUDY    64  49  57 SW7       30.12R
INDIANA*       PTCLDY    61  52  72 SW8       30.15S
LATROBE        CLOUDY    59  52  77 SW5       30.14S
WASHINGTON CO* MOCLDY    57  48  72 SW3       30.15S
$$

PAZ004>006-010>012-017>019-024>028-033>037-041-042-045-046-049>053-250600-
CENTRAL PENNSYLVANIA

CITY           SKY/WX    TMP DP  RH WIND       PRES   REMARKS
BRADFORD       CLOUDY    60  51  72 W9        30.08R
DUBOIS         PTCLDY    58  48  69 SW7       30.10S
CLEARFIELD       N/A    N/A N/A N/A MISG      30.11R
JOHNSTOWN      CLOUDY    61  50  67 W9        30.15R
ALTOONA        CLOUDY    63  51  65 W8        30.14R
STATE COLLEGE  PTCLDY    60  49  68 SW7       30.10S
WILLIAMSPORT   CLOUDY    41  36  82 N5        30.09F
SELINSGROVE    CLOUDY    43  38  82 E3        30.12S
FT INDIANTOWN  CLOUDY    42  42  99 CALM      30.13F
CAPITAL CITY   CLOUDY    48  38  68 CALM      30.14S
HARRISBURG     CLOUDY    48  40  73 CALM      30.13F
YORK           MOCLDY    53  43  68 NE3       30.13S
$$

PAZ038>040-043-044-047-048-054-055-060>062-067>071-250600-
EASTERN PENNSYLVANIA

CITY           SKY/WX    TMP DP  RH WIND       PRES   REMARKS
SCRANTON       CLOUDY    47  39  74 S7        30.06F
MOUNT POCONO   CLOUDY    46  38  73 W13       30.08F
ALLENTOWN      MOCLDY    42  34  73 NW3       30.12F
QUAKERTOWN*    CLOUDY    39  32  75 CALM      30.14S
READING        MOCLDY    43  36  76 CALM      30.13F
LANCASTER      CLOUDY    45  37  73 CALM      30.14F
COATESVILLE    CLOUDY    52  37  58 SW3       30.16F
POTTSTOWN      CLOUDY    42  33  70 CALM      30.15F
BLUE BELL      PTCLDY    39  34  81 CALM      30.14F
DOYLESTOWN     CLOUDY   N/A N/A N/A SW7       30.13F
WILLOW GROVE   NOT AVBL
NORTH PHILA    PTCLDY    46  34  62 SW3       30.16F
PHILADELPHIA   CLOUDY    47  35  63 S5        30.16F
$$



USA.gov is the U.S. government's official web portal to all federal, state and local government web resources and services.